| time (UTC) | temp C | wind direction | speed KPH | gust KPH | rain 1hr cm | rain 24hr cm | rain mn cm | humidity % | barometer mb |
| 20260905041325 | 13 | 42 | 3.2 | 9.7 | 0.00 | 0.00 | 0.00 | 88 | 1020.5 |
| 20260905035818 | 11 | 53 | 0.0 | 3.2 | 0.00 | 0.00 | 0.00 | 93 | 1020.9 |
| 20260905032821 | 6 | 355 | 0.0 | 1.6 | 0.00 | 0.00 | 0.00 | 93 | 1021.4 |
| 20260905025824 | 3 | 350 | 0.0 | 0.0 | 0.00 | 0.00 | 0.00 | 94 | 1021.2 |
| 20260905024318 | 4 | 350 | 0.0 | 0.0 | 0.00 | 0.00 | 0.00 | 92 | 1021.1 |
| 20260905021318 | 6 | 350 | 0.0 | 0.0 | 0.00 | 0.00 | 0.00 | 91 | 1021.0 |
| 20260905014325 | 7 | 350 | 0.0 | 0.0 | 0.00 | 0.00 | 0.00 | 93 | 1020.8 |
| 20260905012813 | 8 | 350 | 0.0 | 0.0 | 0.00 | 0.00 | 0.00 | 88 | 1020.7 |
| 20260905005819 | 11 | 350 | 0.0 | 1.6 | 0.00 | 0.00 | 0.00 | 90 | 1021.0 |
| 20260905002825 | 11 | 103 | 0.0 | 1.6 | 0.00 | 0.00 | 0.00 | 90 | 1021.1 |
| 20260905001317 | 13 | 59 | 0.0 | 3.2 | 0.00 | 0.00 | 0.00 | 87 | 1021.2 |
| 20260904234323 | 11 | 254 | 0.0 | 6.4 | 0.00 | 0.00 | 0.00 | 94 | 1021.8 |
| 20260904231323 | 7 | 337 | 0.0 | 1.6 | 0.00 | 0.00 | 0.00 | 94 | 1021.9 |
| 20260904225816 | 8 | 335 | 0.0 | 0.0 | 0.00 | 0.00 | 0.00 | 92 | 1022.1 |
| 20260904224314 | 9 | 335 | 0.0 | 0.0 | 0.00 | 0.00 | 0.00 | 93 | 1022.2 |
| 20260904215832 | 9 | 107 | 0.0 | 3.2 | 0.00 | 0.00 | 0.00 | 93 | 1022.3 |
| 20260904214318 | 8 | 275 | 0.0 | 1.6 | 0.00 | 0.00 | 0.00 | 94 | 1022.2 |
| 20260904211321 | 8 | 274 | 0.0 | 0.0 | 0.00 | 0.00 | 0.00 | 93 | 1022.5 |
| 20260904204326 | 10 | 275 | 0.0 | 1.6 | 0.00 | 0.00 | 0.00 | 94 | 1022.8 |
| 20260904201327 | 8 | 333 | 0.0 | 0.0 | 0.00 | 0.00 | 0.00 | 95 | 1023.0 |
| 20260904195820 | 10 | 333 | 0.0 | 0.0 | 0.00 | 0.00 | 0.00 | 94 | 1023.2 |
| 20260904192831 | 7 | 19 | 0.0 | 3.2 | 0.00 | 0.00 | 0.00 | 94 | 1023.6 |
| 20260904191326 | 7 | 19 | 0.0 | 1.6 | 0.00 | 0.00 | 0.00 | 94 | 1023.4 |
| 20260904185816 | 8 | 19 | 0.0 | 1.6 | 0.00 | 0.00 | 0.00 | 94 | 1023.0 |
| 20260904182826 | 8 | 19 | 0.0 | 1.6 | 0.00 | 0.00 | 0.00 | 93 | 1022.8 |
| 20260904181322 | 9 | 19 | 0.0 | 0.0 | 0.00 | 0.00 | 0.00 | 91 | 1022.7 |
| 20260904174325 | 11 | 19 | 0.0 | 0.0 | 0.00 | 0.00 | 0.00 | 87 | 1022.5 |
| 20260904172817 | 12 | 19 | 0.0 | 0.0 | 0.00 | 0.00 | 0.00 | 85 | 1022.5 |
| 20260904165825 | 15 | 19 | 0.0 | 3.2 | 0.00 | 0.00 | 0.00 | 84 | 1022.4 |
| 20260904162832 | 16 | 59 | 3.2 | 8.0 | 0.00 | 0.00 | 0.00 | 81 | 1022.6 |
| 20260904161325 | 16 | 54 | 1.6 | 8.0 | 0.00 | 0.00 | 0.00 | 80 | 1022.7 |
| 20260904154324 | 17 | 74 | 4.8 | 9.7 | 0.00 | 0.00 | 0.00 | 77 | 1022.7 |
| 20260904152819 | 17 | 36 | 4.8 | 11.3 | 0.00 | 0.00 | 0.00 | 76 | 1022.8 |
| 20260904144324 | 18 | 105 | 4.8 | 9.7 | 0.00 | 0.00 | 0.00 | 75 | 1023.1 |
| 20260904142813 | 18 | 74 | 4.8 | 12.9 | 0.00 | 0.00 | 0.00 | 76 | 1023.3 |
| 20260904135823 | 19 | 90 | 3.2 | 12.9 | 0.00 | 0.00 | 0.00 | 77 | 1023.2 |
| 20260904134320 | 18 | 15 | 4.8 | 12.9 | 0.00 | 0.00 | 0.00 | 79 | 1023.2 |
| 20260904131324 | 18 | 64 | 4.8 | 11.3 | 0.00 | 0.00 | 0.00 | 80 | 1023.5 |
| 20260904125819 | 18 | 71 | 4.8 | 14.5 | 0.00 | 0.00 | 0.00 | 80 | 1023.6 |
| 20260904122825 | 18 | 54 | 4.8 | 12.9 | 0.00 | 0.00 | 0.00 | 81 | 1023.5 |
| 20260904115826 | 18 | 13 | 4.8 | 12.9 | 0.00 | 0.00 | 0.00 | 80 | 1023.5 |
| 20260904112826 | 18 | 81 | 6.4 | 14.5 | 0.00 | 0.00 | 0.00 | 80 | 1023.7 |
| 20260904111323 | 18 | 134 | 3.2 | 11.3 | 0.00 | 0.00 | 0.00 | 79 | 1023.9 |
| 20260904105816 | 18 | 69 | 4.8 | 12.9 | 0.00 | 0.00 | 0.00 | 79 | 1023.8 |
| 20260904102819 | 18 | 151 | 3.2 | 14.5 | 0.00 | 0.00 | 0.00 | 76 | 1024.0 |
| 20260904095825 | 18 | 9 | 4.8 | 11.3 | 0.00 | 0.00 | 0.00 | 73 | 1024.1 |
| 20260904094317 | 18 | 333 | 6.4 | 14.5 | 0.00 | 0.00 | 0.00 | 74 | 1024.1 |
| 20260904091319 | 18 | 197 | 3.2 | 9.7 | 0.00 | 0.00 | 0.00 | 72 | 1024.0 |
| 20260904084325 | 19 | 329 | 1.6 | 8.0 | 0.00 | 0.00 | 0.00 | 68 | 1024.1 |
| 20260904082817 | 20 | 65 | 0.0 | 3.2 | 0.00 | 0.00 | 0.00 | 67 | 1024.3 |
| 20260904081315 | 20 | 275 | 0.0 | 3.2 | 0.00 | 0.00 | 0.00 | 66 | 1024.3 |
| 20260904074321 | 19 | 248 | 0.0 | 6.4 | 0.00 | 0.00 | 0.00 | 72 | 1024.2 |
| 20260904072813 | 18 | 186 | 0.0 | 1.6 | 0.00 | 0.00 | 0.00 | 73 | 1024.3 |
| 20260904065824 | 13 | 196 | 0.0 | 1.6 | 0.00 | 0.00 | 0.00 | 93 | 1024.6 |
| 20260904064317 | 10 | 196 | 0.0 | 0.0 | 0.00 | 0.00 | 0.00 | 93 | 1024.7 |
| 20260904061323 | 1 | 196 | 0.0 | 0.0 | 0.00 | 0.00 | 0.00 | 94 | 1024.9 |
| 20260904055820 | 1 | 196 | 0.0 | 0.0 | 0.00 | 0.00 | 0.00 | 93 | 1024.5 |
| 20260904052823 | 1 | 196 | 0.0 | 0.0 | 0.00 | 0.00 | 0.00 | 91 | 1024.3 |
| 20260904045826 | 1 | 196 | 0.0 | 0.0 | 0.00 | 0.00 | 0.00 | 89 | 1024.0 |